Change the Weather History Date:

Friday, July 19, 2013

  Actual Average Record
Temperature  
Mean Temperature 85 °F 75 °F  
Max Temperature 96 °F 85 °F 98 °F (1974)
Min Temperature 74 °F 65 °F 53 °F (2003)
Degree Days  
Heating Degree Days 0 0  
Month to date heating degree days 0 0  
Since 1 June heating degree days 21 17  
Since 1 July heating degree days 0 0  
Cooling Degree Days 20 10  
Month to date cooling degree days 212 190  
Year to date cooling degree days 504 462  
Since 1 June cooling degree days 417 401  
Growing Degree Days 35 (Base 50)    
Moisture  
Dew Point 70 °F    
Average Humidity 63    
Maximum Humidity 82    
Minimum Humidity 43    
Precipitation  
Precipitation 0.07 in 0.15 in 2.42 in (1978)
Month to date precipitation 0.37 3.37  
Year to date precipitation 26.44 20.07  
Sea Level Pressure  
Sea Level Pressure 29.86 in    
Wind  
Wind Speed 9 mph (WSW)    
Max Wind Speed 29 mph    
Max Gust Speed 41 mph    
Visibility 10 miles    
Events Rain , Thunderstorm    
T = Trace of Precipitation, MM = Missing Value Source: NWS Daily Summary

Daily Weather History Graph

Daily Weather History Graph

Search for Another Location

Airport or City:

Trip Planner

Search our weather history database for the weather conditions in past years. The results will help you decide how hot, cold, wet, or windy it might be!

Date:

Astronomy

Jul. 19, 2013 Rise Set
Actual Time 5:48 AM CDT 8:35 PM CDT
Civil Twilight 5:15 AM CDT 9:08 PM CDT
Nautical Twilight 4:34 AM CDT 9:49 PM CDT
Astronomical Twilight 3:47 AM CDT 10:36 PM CDT
Moon 5:38 PM CDT (7/19) 2:30 AM CDT (7/19)
Length of Visible Light 15h 52m
Length of Day
14h 47m
Waxing Gibbous, 87% of the Moon is Illuminated
Jul 19
Waxing Gibbous
Jul 22
Full
Jul 29
Last Quarter
Aug 6
New
Aug 14
First Quarter

Hourly Weather History & Observations

Time (CDT) Temp. Heat Index Dew Point Humidity Pressure Visibility Wind Dir Wind Speed Gust Speed Precip Events Conditions
12:52 AM 78.1 °F - 69.1 °F 74% 29.94 in 10.0 mi SSW 3.5 mph - N/A   Clear
1:52 AM 77.0 °F - 69.1 °F 76% 29.92 in 10.0 mi SSW 5.8 mph - N/A   Clear
2:52 AM 75.9 °F - 68.0 °F 76% 29.91 in 10.0 mi SSW 4.6 mph - N/A   Clear
3:52 AM 77.0 °F - 68.0 °F 74% 29.89 in 10.0 mi SSW 4.6 mph - N/A   Clear
4:52 AM 75.9 °F - 68.0 °F 76% 29.88 in 10.0 mi SSW 4.6 mph - N/A   Clear
5:52 AM 75.0 °F - 68.0 °F 79% 29.89 in 10.0 mi WSW 3.5 mph - N/A   Clear
6:52 AM 75.9 °F - 69.1 °F 79% 29.90 in 10.0 mi SW 4.6 mph - N/A   Mostly Cloudy
7:52 AM 80.1 °F 83.2 °F 70.0 °F 71% 29.90 in 10.0 mi SW 6.9 mph - N/A   Clear
8:52 AM 84.0 °F 88.4 °F 70.0 °F 63% 29.90 in 10.0 mi WSW 10.4 mph 21.9 mph N/A   Clear
9:52 AM 86.0 °F 91.5 °F 71.1 °F 61% 29.91 in 10.0 mi WSW 6.9 mph - N/A   Mostly Cloudy
10:52 AM 87.1 °F 92.0 °F 70.0 °F 57% 29.88 in 10.0 mi SW 13.8 mph 19.6 mph N/A   Clear
11:52 AM 90.0 °F 95.4 °F 70.0 °F 52% 29.87 in 10.0 mi West 16.1 mph 24.2 mph N/A   Clear
12:52 PM 93.0 °F 100.1 °F 71.1 °F 49% 29.85 in 10.0 mi WSW 13.8 mph 24.2 mph N/A   Clear
1:52 PM 91.9 °F 98.4 °F 71.1 °F 50% 29.83 in 10.0 mi SW 12.7 mph 20.7 mph N/A   Clear
2:52 PM 95.0 °F 101.3 °F 70.0 °F 44% 29.82 in 10.0 mi WSW 12.7 mph 25.3 mph N/A   Clear
3:52 PM 95.0 °F 102.5 °F 71.1 °F 46% 29.81 in 10.0 mi West 18.4 mph 25.3 mph N/A   Partly Cloudy
4:52 PM 93.9 °F 102.1 °F 72.0 °F 49% 29.80 in 10.0 mi West 12.7 mph - N/A   Partly Cloudy
5:38 PM 91.4 °F 100.1 °F 73.4 °F 55% 29.81 in 10.0 mi West 9.2 mph - N/A Thunderstorm Mostly Cloudy
5:52 PM 90.0 °F 99.0 °F 73.9 °F 59% 29.80 in 10.0 mi WSW 11.5 mph - 0.00 in Rain , Thunderstorm Light Rain
6:19 PM 78.8 °F - 71.6 °F 78% 29.83 in 6.0 mi South 16.1 mph - 0.07 in Rain , Thunderstorm Light Thunderstorms and Rain
6:52 PM 84.9 °F 98.9 °F 80.1 °F 85% 29.80 in 10.0 mi Calm Calm - 0.07 in Thunderstorm Thunderstorm
7:16 PM 82.4 °F 88.2 °F 73.4 °F 74% 29.82 in 10.0 mi Calm Calm - N/A   Partly Cloudy
7:52 PM 84.0 °F 91.9 °F 75.0 °F 74% 29.79 in 10.0 mi NW 3.5 mph - N/A   Partly Cloudy
8:52 PM 84.0 °F 89.0 °F 71.1 °F 65% 29.81 in 10.0 mi North 5.8 mph - N/A   Scattered Clouds
9:52 PM 82.9 °F 85.4 °F 66.9 °F 58% 29.84 in 10.0 mi NNW 8.1 mph - N/A   Scattered Clouds
10:52 PM 82.0 °F 83.8 °F 64.9 °F 56% 29.85 in 10.0 mi NNW 6.9 mph - N/A   Clear
11:52 PM 80.1 °F 81.9 °F 64.9 °F 60% 29.86 in 10.0 mi NNW 9.2 mph - N/A   Clear